This is the latest recevied weather packets stored in our database for station/object W4MLN-3. If no packets are shown the sender has not sent any weather packets the latest 10 day(s).
| Time | Temp. | Humidity | Pressure | Rain* | Wind** | Luminosity | Snow |
|---|---|---|---|---|---|---|---|
| 1778020803 | 17.78° C | 45% | 1013.8 hPa | 0 mm | - | - | - |
| 1778020504 | 17.78° C | 46% | 1013.8 hPa | 0 mm | - | - | - |
| 1778020203 | 18.33° C | 45% | 1013.6 hPa | 0 mm | - | - | - |
| 1778019903 | 18.33° C | 45% | 1013.5 hPa | 0 mm | - | - | - |
| 1778019603 | 18.33° C | 46% | 1013.6 hPa | 0 mm | - | - | - |
| 1778019324 | 18.33° C | 45% | 1013.7 hPa | 0 mm | - | - | - |
| 1778019003 | 18.33° C | 45% | 1013.9 hPa | 0 mm | - | - | - |
| 1778018703 | 18.89° C | 44% | 1013.9 hPa | 0 mm | - | - | - |
| 1778018403 | 18.89° C | 45% | 1013.7 hPa | 0 mm | - | - | - |
| 1778018125 | 18.89° C | 45% | 1013.6 hPa | 0 mm | - | - | - |
| 1778017803 | 18.33° C | 45% | 1013.6 hPa | 0 mm | - | - | - |
| 1778017503 | 18.33° C | 44% | 1013.7 hPa | 0 mm | - | - | - |
| 1778017203 | 18.89° C | 44% | 1013.8 hPa | 0 mm | - | - | - |
| 1778016904 | 18.33° C | 44% | 1013.9 hPa | 0 mm | - | - | - |
| 1778016603 | 18.33° C | 44% | 1013.9 hPa | 0 mm | - | - | - |
| 1778016303 | 18.33° C | 43% | 1013.9 hPa | 0 mm | - | - | - |
| 1778016003 | 18.89° C | 42% | 1013.9 hPa | 0 mm | - | - | - |
| 1778015724 | 18.89° C | 42% | 1013.9 hPa | 0 mm | - | - | - |
| 1778015403 | 19.44° C | 41% | 1014 hPa | 0 mm | - | - | - |
| 1778015103 | 19.44° C | 42% | 1014.1 hPa | 0 mm | - | - | - |
| 1778014803 | 20° C | 42% | 1014.1 hPa | 0 mm | - | - | - |
| 1778014503 | 20° C | 43% | 1014.1 hPa | 0 mm | - | - | - |
| 1778014204 | 20° C | 42% | 1014 hPa | 0 mm | - | - | - |
| 1778013903 | 20° C | 43% | 1013.9 hPa | 0 mm | - | - | - |
| 1778013603 | 20° C | 43% | 1014 hPa | 0 mm | - | - | - |
* Rain latest hour (hover to see other rain measurements)
** Current wind speed in m/s (hover to see current wind gust speed)